AAL617 MSLP-KMIA

Flight info

Callsign AAL617
Flight time 1h 39m
Altitude 39000
Route ATUMA3F ATUMA UH225 SAP UG521 CZM UG765 MAXIM SNDBR3
Aircraft B752/M-SDE3FGHIM3RWXY/LB1

Departure

Time 2026-04-22 20:14
Airport El Salvador International Airport Saint Óscar Arnulfo Romero y Galdámez (MSLP)

Arrival

Time 2026-04-22 21:54
Airport Miami International Airport (KMIA)
Time Latitude Longitude Altitude Speed Heading
2026-04-22 19:48 13.44394 -89.05754 111 ft 0 kts 340°
2026-04-22 19:57 13.44391 -89.05753 110 ft 2 kts 340°
2026-04-22 19:58 13.44377 -89.05748 109 ft 2 kts 340°
2026-04-22 19:58 13.44363 -89.05743 109 ft 2 kts 340°
2026-04-22 19:58 13.44348 -89.05737 109 ft 2 kts 349°
2026-04-22 19:58 13.44333 -89.05738 109 ft 2 kts 13°
2026-04-22 19:59 13.44319 -89.05743 108 ft 2 kts 34°
2026-04-22 20:00 13.44301 -89.05769 108 ft 0 kts 71°
2026-04-22 20:04 13.44303 -89.05764 108 ft 3 kts 71°
2026-04-22 20:04 13.44312 -89.05735 108 ft 5 kts 71°
2026-04-22 20:05 13.44325 -89.05695 108 ft 6 kts 71°
2026-04-22 20:05 13.44340 -89.05650 109 ft 7 kts 71°
2026-04-22 20:05 13.44355 -89.05602 109 ft 7 kts 71°
2026-04-22 20:05 13.44371 -89.05554 109 ft 7 kts 72°
2026-04-22 20:06 13.44387 -89.05503 110 ft 7 kts 72°
2026-04-22 20:06 13.44403 -89.05452 110 ft 8 kts 74°
2026-04-22 20:06 13.44397 -89.05399 110 ft 8 kts 116°
2026-04-22 20:06 13.44375 -89.05341 109 ft 9 kts 95°
2026-04-22 20:07 13.44388 -89.05278 109 ft 9 kts 72°
2026-04-22 20:07 13.44413 -89.05206 109 ft 14 kts 70°
2026-04-22 20:07 13.44452 -89.05094 109 ft 0 kts 70°
2026-04-22 20:08 13.44463 -89.05064 110 ft 11 kts 70°
2026-04-22 20:09 13.44495 -89.04979 110 ft 13 kts 68°
2026-04-22 20:09 13.44529 -89.04893 111 ft 13 kts 69°
2026-04-22 20:09 13.44559 -89.04806 111 ft 13 kts 71°
2026-04-22 20:09 13.44591 -89.04711 112 ft 20 kts 70°
2026-04-22 20:10 13.44646 -89.04565 113 ft 23 kts 69°
2026-04-22 20:10 13.44697 -89.04417 115 ft 18 kts 71°
2026-04-22 20:10 13.44727 -89.04328 116 ft 0 kts 72°
2026-04-22 20:11 13.44728 -89.04326 115 ft 2 kts 72°
2026-04-22 20:11 13.44734 -89.04284 115 ft 8 kts 93°
2026-04-22 20:11 13.44705 -89.04241 114 ft 8 kts 147°
2026-04-22 20:12 13.44651 -89.04214 114 ft 9 kts 159°
2026-04-22 20:12 13.44603 -89.04200 113 ft 4 kts 184°
2026-04-22 20:12 13.44587 -89.04209 113 ft 4 kts 225°
2026-04-22 20:12 13.44574 -89.04232 112 ft 0 kts 248°
2026-04-22 20:13 13.44572 -89.04237 112 ft 10 kts 248°
2026-04-22 20:13 13.44455 -89.04561 110 ft 88 kts 250°
2026-04-22 20:14 13.44159 -89.05393 105 ft 159 kts 249°
2026-04-22 20:14 13.43737 -89.06550 585 ft 182 kts 248°
2026-04-22 20:14 13.43294 -89.07817 1315 ft 198 kts 255°
2026-04-22 20:14 13.43150 -89.09233 1992 ft 211 kts 275°
2026-04-22 20:15 13.43593 -89.10721 2536 ft 230 kts 302°
2026-04-22 20:15 13.44705 -89.11932 3153 ft 244 kts 328°
2026-04-22 20:15 13.46274 -89.12655 3870 ft 254 kts 348°
2026-04-22 20:15 13.48020 -89.12828 4783 ft 255 kts 359°
2026-04-22 20:16 13.49748 -89.13045 5828 ft 253 kts 347°
2026-04-22 20:16 13.51419 -89.13585 6726 ft 257 kts 341°
2026-04-22 20:16 13.53117 -89.14215 7491 ft 265 kts 343°
2026-04-22 20:16 13.54944 -89.14684 8228 ft 274 kts 352°
2026-04-22 20:17 13.56859 -89.14859 8995 ft 282 kts
2026-04-22 20:17 13.58825 -89.14712 9794 ft 287 kts 11°
2026-04-22 20:17 13.60671 -89.13960 10553 ft 293 kts 34°
2026-04-22 20:17 13.62199 -89.12471 10916 ft 315 kts 53°
2026-04-22 20:18 13.63425 -89.10521 11262 ft 335 kts 54°
2026-04-22 20:18 13.64920 -89.08604 11566 ft 354 kts 47°
2026-04-22 20:18 13.66643 -89.06757 12249 ft 358 kts 45°
2026-04-22 20:18 13.68436 -89.04961 12913 ft 363 kts 43°
2026-04-22 20:19 13.70292 -89.03188 13578 ft 367 kts 42°
2026-04-22 20:19 13.72182 -89.01428 14273 ft 370 kts 41°
2026-04-22 20:19 13.74115 -88.99657 14888 ft 374 kts 41°
2026-04-22 20:19 13.76076 -88.97876 15544 ft 377 kts 41°
2026-04-22 20:20 13.78048 -88.96092 16169 ft 381 kts 41°
2026-04-22 20:20 13.80054 -88.94284 16840 ft 384 kts 41°
2026-04-22 20:20 13.82067 -88.92472 17539 ft 387 kts 41°
2026-04-22 20:20 13.84103 -88.90642 18112 ft 393 kts 41°
2026-04-22 20:21 13.86169 -88.88784 18680 ft 398 kts 41°
2026-04-22 20:21 13.88263 -88.86900 19243 ft 404 kts 41°
2026-04-22 20:21 13.90381 -88.84994 19805 ft 409 kts 41°
2026-04-22 20:21 13.92531 -88.83061 20415 ft 412 kts 41°
2026-04-22 20:22 13.94720 -88.81091 20945 ft 418 kts 41°
2026-04-22 20:22 13.96914 -88.79116 21457 ft 423 kts 41°
2026-04-22 20:22 13.99132 -88.77119 21992 ft 427 kts 41°
2026-04-22 20:22 14.01432 -88.75162 22500 ft 431 kts 35°
2026-04-22 20:23 14.03999 -88.73539 22997 ft 437 kts 29°
2026-04-22 20:23 14.06665 -88.72001 23636 ft 440 kts 29°
2026-04-22 20:23 14.09353 -88.70450 24155 ft 446 kts 29°
2026-04-22 20:23 14.12085 -88.68882 24758 ft 449 kts 28°
2026-04-22 20:24 14.14834 -88.67307 25262 ft 454 kts 28°
2026-04-22 20:24 14.17606 -88.65721 25799 ft 458 kts 28°
2026-04-22 20:24 14.20406 -88.64120 26329 ft 462 kts 28°
2026-04-22 20:24 14.23235 -88.62503 26839 ft 466 kts 28°
2026-04-22 20:25 14.26075 -88.60879 27373 ft 469 kts 28°
2026-04-22 20:25 14.28949 -88.59238 27846 ft 474 kts 28°
2026-04-22 20:25 14.31859 -88.57576 28343 ft 477 kts 28°
2026-04-22 20:25 14.34783 -88.55905 28756 ft 483 kts 27°
2026-04-22 20:26 14.37723 -88.54225 29262 ft 485 kts 27°
2026-04-22 20:26 14.40701 -88.52523 29654 ft 490 kts 27°
2026-04-22 20:26 14.43683 -88.50817 30117 ft 493 kts 27°
2026-04-22 20:26 14.46701 -88.49091 30491 ft 497 kts 27°
2026-04-22 20:27 14.49729 -88.47359 30955 ft 498 kts 27°
2026-04-22 20:27 14.52794 -88.45604 31430 ft 499 kts 27°
2026-04-22 20:27 14.55813 -88.43875 32167 ft 494 kts 27°
2026-04-22 20:27 14.58814 -88.42155 32651 ft 494 kts 27°
2026-04-22 20:28 14.61827 -88.40429 33188 ft 493 kts 27°
2026-04-22 20:28 14.64714 -88.38773 33781 ft 492 kts 27°
2026-04-22 20:28 14.67704 -88.37058 34291 ft 491 kts 27°
2026-04-22 20:28 14.70689 -88.35345 34786 ft 491 kts 27°
2026-04-22 20:29 14.73693 -88.33622 35354 ft 489 kts 27°
2026-04-22 20:29 14.76662 -88.31918 35744 ft 490 kts 27°
2026-04-22 20:29 14.79634 -88.30211 36183 ft 489 kts 27°
2026-04-22 20:29 14.82604 -88.28506 36575 ft 489 kts 27°
2026-04-22 20:30 14.85577 -88.26797 36928 ft 490 kts 27°
2026-04-22 20:30 14.88553 -88.25087 37286 ft 490 kts 27°
2026-04-22 20:30 14.91525 -88.23376 37673 ft 489 kts 27°
2026-04-22 20:30 14.94528 -88.21647 37963 ft 490 kts 26°
2026-04-22 20:31 14.97510 -88.19930 38248 ft 490 kts 26°
2026-04-22 20:31 15.00493 -88.18212 38598 ft 489 kts 26°
2026-04-22 20:31 15.03462 -88.16500 38914 ft 489 kts 26°
2026-04-22 20:32 15.09410 -88.13072 38997 ft 488 kts 26°
2026-04-22 20:32 15.15341 -88.09650 38991 ft 485 kts 26°
2026-04-22 20:33 15.21246 -88.06242 38977 ft 487 kts 26°
2026-04-22 20:33 15.27164 -88.02823 38954 ft 486 kts 26°
2026-04-22 20:34 15.33066 -87.99411 38952 ft 485 kts 26°
2026-04-22 20:34 15.38989 -87.95985 38955 ft 485 kts 26°
2026-04-22 20:35 15.44944 -87.92676 38960 ft 483 kts 20°
2026-04-22 20:35 15.51366 -87.90833 38956 ft 478 kts
2026-04-22 20:36 15.57927 -87.89503 38957 ft 477 kts
2026-04-22 20:36 15.64462 -87.88214 38959 ft 479 kts
2026-04-22 20:37 15.71014 -87.86936 38962 ft 479 kts
2026-04-22 20:37 15.77556 -87.85663 38959 ft 477 kts
2026-04-22 20:38 15.84108 -87.84390 38957 ft 478 kts
2026-04-22 20:38 15.90645 -87.83121 38952 ft 478 kts
2026-04-22 20:39 15.97177 -87.81851 38947 ft 478 kts
2026-04-22 20:39 16.03746 -87.80574 38943 ft 480 kts
2026-04-22 20:40 16.10310 -87.79296 38943 ft 480 kts
2026-04-22 20:40 16.16878 -87.78018 38939 ft 479 kts
2026-04-22 20:41 16.23439 -87.76739 38940 ft 479 kts
2026-04-22 20:41 16.30004 -87.75459 38944 ft 478 kts
2026-04-22 20:42 16.36536 -87.74184 38941 ft 478 kts
2026-04-22 20:42 16.43066 -87.72909 38941 ft 478 kts
2026-04-22 20:43 16.49625 -87.71628 38945 ft 479 kts
2026-04-22 20:43 16.56174 -87.70348 38942 ft 479 kts
2026-04-22 20:44 16.62725 -87.69066 38948 ft 479 kts
2026-04-22 20:44 16.69284 -87.67782 38955 ft 479 kts
2026-04-22 20:45 16.75852 -87.66495 38964 ft 478 kts
2026-04-22 20:45 16.82382 -87.65215 38959 ft 478 kts
2026-04-22 20:46 16.92180 -87.63291 38966 ft 477 kts
2026-04-22 20:46 16.98730 -87.62005 38967 ft 478 kts
2026-04-22 20:47 17.05268 -87.60720 38968 ft 478 kts
2026-04-22 20:47 17.11814 -87.59461 38969 ft 478 kts
2026-04-22 20:48 17.18386 -87.58198 38969 ft 478 kts
2026-04-22 20:48 17.24930 -87.56939 38971 ft 478 kts
2026-04-22 20:49 17.31463 -87.55681 38969 ft 476 kts
2026-04-22 20:49 17.37980 -87.54426 38970 ft 476 kts
2026-04-22 20:50 17.44519 -87.53166 38976 ft 477 kts
2026-04-22 20:50 17.51046 -87.51907 38974 ft 477 kts
2026-04-22 20:51 17.62937 -87.49611 38981 ft 477 kts
2026-04-22 20:51 17.76033 -87.47077 38976 ft 476 kts
2026-04-22 20:52 17.89057 -87.44556 38977 ft 475 kts
2026-04-22 20:52 18.02057 -87.42035 38976 ft 474 kts
2026-04-22 20:53 18.15058 -87.39509 38975 ft 474 kts
2026-04-22 20:53 18.28074 -87.36977 38978 ft 474 kts
2026-04-22 20:54 18.41069 -87.34446 38966 ft 476 kts
2026-04-22 20:54 18.54089 -87.31905 38962 ft 476 kts
2026-04-22 20:55 18.67126 -87.29325 38964 ft 475 kts
2026-04-22 20:55 18.80078 -87.26629 38966 ft 474 kts
2026-04-22 20:56 18.93010 -87.23946 38967 ft 472 kts
2026-04-22 20:56 19.05921 -87.21267 38971 ft 473 kts
2026-04-22 20:57 19.18899 -87.18567 38972 ft 473 kts
2026-04-22 20:57 19.31820 -87.15876 38978 ft 474 kts
2026-04-22 20:58 19.44773 -87.13173 38976 ft 476 kts
2026-04-22 20:58 19.57799 -87.10449 38978 ft 475 kts
2026-04-22 20:59 19.70784 -87.07732 38985 ft 477 kts
2026-04-22 20:59 19.83801 -87.05001 38981 ft 477 kts
2026-04-22 21:00 19.96833 -87.02263 38985 ft 478 kts
2026-04-22 21:00 20.09894 -86.99516 38996 ft 476 kts
2026-04-22 21:01 20.22932 -86.96870 38995 ft 476 kts
2026-04-22 21:01 20.35962 -86.94220 38990 ft 475 kts
2026-04-22 21:02 20.49031 -86.91273 39000 ft 483 kts 11°
2026-04-22 21:02 20.61325 -86.84913 39025 ft 501 kts 30°
2026-04-22 21:03 20.71563 -86.74635 39025 ft 514 kts 48°
2026-04-22 21:03 20.78728 -86.61359 39043 ft 523 kts 62°
2026-04-22 21:04 20.86392 -86.48334 39034 ft 514 kts 44°
2026-04-22 21:04 20.96188 -86.37323 39026 ft 514 kts 43°
2026-04-22 21:05 21.05779 -86.26008 39002 ft 515 kts 44°
2026-04-22 21:05 21.15383 -86.14557 39001 ft 516 kts 44°
2026-04-22 21:06 21.24923 -86.03152 39000 ft 515 kts 44°
2026-04-22 21:06 21.34449 -85.91737 39012 ft 515 kts 44°
2026-04-22 21:07 21.43988 -85.80285 39010 ft 516 kts 43°
2026-04-22 21:07 21.53515 -85.68821 39005 ft 512 kts 43°
2026-04-22 21:08 21.62986 -85.57406 39010 ft 514 kts 44°
2026-04-22 21:08 21.72466 -85.45948 39020 ft 514 kts 43°
2026-04-22 21:09 21.81947 -85.34465 39029 ft 512 kts 44°
2026-04-22 21:09 21.91377 -85.23021 39008 ft 513 kts 44°
2026-04-22 21:10 21.99254 -85.13444 39005 ft 514 kts 44°
2026-04-22 21:10 22.10289 -84.99997 39015 ft 516 kts 44°
2026-04-22 21:11 22.19814 -84.88361 39016 ft 516 kts 44°
2026-04-22 21:11 22.29293 -84.76755 39023 ft 517 kts 44°
2026-04-22 21:12 22.37219 -84.67032 39027 ft 517 kts 43°
2026-04-22 21:12 22.48279 -84.53434 39036 ft 517 kts 43°
2026-04-22 21:13 22.57746 -84.41767 39046 ft 518 kts 43°
2026-04-22 21:13 22.65615 -84.32048 39019 ft 518 kts 44°
2026-04-22 21:14 22.75122 -84.20279 39023 ft 518 kts 43°
2026-04-22 21:14 22.86174 -84.06570 39029 ft 519 kts 43°
2026-04-22 21:15 22.95632 -83.94804 39030 ft 520 kts 43°
2026-04-22 21:15 23.03562 -83.84921 39046 ft 522 kts 43°
2026-04-22 21:16 23.13061 -83.73054 39044 ft 522 kts 43°
2026-04-22 21:16 23.22541 -83.61183 39049 ft 520 kts 43°
2026-04-22 21:17 23.32017 -83.49291 39060 ft 522 kts 43°
2026-04-22 21:17 23.41528 -83.37327 39061 ft 522 kts 43°
2026-04-22 21:18 23.50153 -83.26449 39042 ft 523 kts 45°
2026-04-22 21:18 23.54087 -83.19741 39057 ft 535 kts 63°
2026-04-22 21:19 23.56245 -83.11962 39062 ft 539 kts 74°
2026-04-22 21:19 23.58972 -83.04468 39067 ft 532 kts 55°
2026-04-22 21:20 23.63447 -82.98236 39070 ft 518 kts 36°
2026-04-22 21:20 23.68769 -82.93017 39077 ft 520 kts 39°
2026-04-22 21:21 23.73668 -82.87158 39070 ft 523 kts 43°
2026-04-22 21:21 23.78346 -82.81107 39069 ft 525 kts 44°
2026-04-22 21:22 23.82961 -82.74960 39078 ft 525 kts 45°
2026-04-22 21:22 23.87570 -82.68755 39078 ft 526 kts 45°
2026-04-22 21:23 23.92153 -82.62556 39085 ft 526 kts 45°
2026-04-22 21:23 23.96729 -82.56352 39087 ft 525 kts 45°
2026-04-22 21:24 24.01296 -82.50166 39094 ft 523 kts 42°
2026-04-22 21:24 24.06333 -82.44481 39091 ft 520 kts 39°
2026-04-22 21:25 24.11336 -82.38781 39088 ft 522 kts 40°
2026-04-22 21:25 24.16119 -82.32834 39079 ft 528 kts 50°
2026-04-22 21:26 24.19673 -82.25706 39075 ft 536 kts 60°
2026-04-22 21:26 24.22886 -82.18453 38884 ft 516 kts 60°
2026-04-22 21:27 24.24405 -82.14989 38644 ft 499 kts 59°
2026-04-22 21:27 24.25886 -82.11605 38352 ft 492 kts 60°
2026-04-22 21:27 24.27371 -82.08217 38077 ft 500 kts 60°
2026-04-22 21:27 24.28882 -82.04756 37805 ft 509 kts 60°
2026-04-22 21:28 24.30418 -82.01233 37526 ft 511 kts 60°
2026-04-22 21:28 24.31936 -81.97739 37238 ft 508 kts 60°
2026-04-22 21:28 24.33446 -81.94264 36973 ft 506 kts 60°
2026-04-22 21:28 24.34953 -81.90793 36696 ft 507 kts 60°
2026-04-22 21:29 24.36463 -81.87316 36427 ft 508 kts 60°
2026-04-22 21:29 24.37973 -81.83831 36158 ft 509 kts 60°
2026-04-22 21:29 24.39487 -81.80339 35891 ft 509 kts 60°
2026-04-22 21:29 24.41012 -81.76817 35627 ft 510 kts 60°
2026-04-22 21:30 24.42522 -81.73326 35356 ft 509 kts 60°
2026-04-22 21:30 24.44036 -81.69827 35087 ft 508 kts 59°
2026-04-22 21:30 24.45765 -81.66472 34832 ft 504 kts 50°
2026-04-22 21:30 24.47874 -81.63426 34588 ft 501 kts 44°
2026-04-22 21:31 24.50080 -81.60461 34320 ft 503 kts 44°
2026-04-22 21:31 24.52301 -81.57483 33702 ft 508 kts 45°
2026-04-22 21:31 24.54562 -81.54465 33056 ft 509 kts 44°
2026-04-22 21:31 24.56803 -81.51476 32440 ft 506 kts 44°
2026-04-22 21:32 24.59024 -81.48518 31800 ft 503 kts 45°
2026-04-22 21:32 24.61240 -81.45571 31140 ft 502 kts 44°
2026-04-22 21:32 24.63452 -81.42629 30468 ft 501 kts 45°
2026-04-22 21:32 24.65661 -81.39687 29841 ft 499 kts 45°
2026-04-22 21:33 24.67863 -81.36752 29146 ft 499 kts 45°
2026-04-22 21:33 24.70063 -81.33819 28413 ft 492 kts 46°
2026-04-22 21:33 24.72222 -81.30938 27689 ft 488 kts 46°
2026-04-22 21:33 24.74359 -81.28086 26939 ft 481 kts 46°
2026-04-22 21:34 24.76438 -81.25304 26274 ft 464 kts 46°
2026-04-22 21:34 24.78436 -81.22630 25759 ft 445 kts 46°
2026-04-22 21:34 24.80387 -81.20023 25178 ft 442 kts 46°
2026-04-22 21:34 24.82342 -81.17415 24585 ft 443 kts 46°
2026-04-22 21:35 24.84321 -81.14830 23975 ft 436 kts 42°
2026-04-22 21:35 24.86521 -81.12626 23388 ft 423 kts 32°
2026-04-22 21:35 24.88961 -81.10930 22808 ft 411 kts 22°
2026-04-22 21:35 24.91503 -81.09567 22275 ft 405 kts 20°
2026-04-22 21:36 24.94036 -81.08249 21730 ft 401 kts 20°
2026-04-22 21:36 24.96556 -81.06968 21192 ft 396 kts 19°
2026-04-22 21:36 24.99043 -81.05719 20658 ft 392 kts 20°
2026-04-22 21:36 25.01523 -81.04484 20122 ft 387 kts 19°
2026-04-22 21:37 25.04759 -81.02877 19423 ft 381 kts 20°
2026-04-22 21:37 25.06377 -81.02076 19073 ft 378 kts 20°
2026-04-22 21:37 25.08763 -81.00895 18554 ft 375 kts 20°
2026-04-22 21:37 25.11133 -80.99723 18041 ft 371 kts 20°
2026-04-22 21:38 25.13473 -80.98565 17531 ft 368 kts 20°
2026-04-22 21:38 25.15789 -80.97419 17026 ft 366 kts 20°
2026-04-22 21:38 25.18118 -80.96265 16520 ft 363 kts 21°
2026-04-22 21:38 25.20413 -80.95129 15991 ft 360 kts 21°
2026-04-22 21:39 25.22684 -80.94004 15450 ft 356 kts 21°
2026-04-22 21:39 25.24923 -80.92893 14921 ft 351 kts 21°
2026-04-22 21:39 25.27144 -80.91792 14410 ft 348 kts 21°
2026-04-22 21:39 25.29340 -80.90703 13908 ft 341 kts 21°
2026-04-22 21:40 25.31466 -80.89646 13425 ft 330 kts 21°
2026-04-22 21:40 25.33549 -80.88612 12968 ft 324 kts 21°
2026-04-22 21:40 25.35608 -80.87591 12524 ft 325 kts 21°
2026-04-22 21:40 25.37670 -80.86568 12064 ft 325 kts 22°
2026-04-22 21:41 25.39716 -80.85579 11849 ft 316 kts 20°
2026-04-22 21:41 25.41744 -80.84647 11861 ft 319 kts 20°
2026-04-22 21:41 25.43819 -80.83690 11860 ft 323 kts 20°
2026-04-22 21:41 25.45873 -80.82802 11841 ft 307 kts 16°
2026-04-22 21:42 25.47870 -80.82061 11426 ft 299 kts 16°
2026-04-22 21:42 25.49814 -80.81331 10978 ft 292 kts 16°
2026-04-22 21:42 25.51723 -80.80614 10584 ft 288 kts 17°
2026-04-22 21:42 25.53621 -80.79900 10224 ft 289 kts 17°
2026-04-22 21:43 25.55523 -80.79183 9857 ft 290 kts 17°
2026-04-22 21:43 25.57426 -80.78465 9470 ft 287 kts 18°
2026-04-22 21:43 25.59289 -80.77761 9080 ft 279 kts 18°
2026-04-22 21:43 25.61104 -80.77075 8687 ft 271 kts 18°
2026-04-22 21:44 25.62877 -80.76405 8300 ft 268 kts 18°
2026-04-22 21:44 25.64528 -80.75498 7938 ft 266 kts 40°
2026-04-22 21:44 25.65758 -80.73974 7611 ft 266 kts 51°
2026-04-22 21:44 25.66889 -80.72380 7245 ft 262 kts 51°
2026-04-22 21:45 25.68005 -80.70796 6883 ft 261 kts 52°
2026-04-22 21:45 25.69110 -80.69206 6514 ft 260 kts 52°
2026-04-22 21:45 25.70206 -80.67619 6087 ft 254 kts 53°
2026-04-22 21:45 25.71245 -80.66111 5703 ft 240 kts 54°
2026-04-22 21:46 25.72226 -80.64682 5321 ft 228 kts 54°
2026-04-22 21:46 25.73161 -80.63316 4938 ft 219 kts 54°
2026-04-22 21:46 25.74058 -80.62006 4586 ft 213 kts 54°
2026-04-22 21:46 25.74961 -80.60683 4242 ft 217 kts 55°
2026-04-22 21:47 25.75873 -80.59348 3881 ft 219 kts 54°
2026-04-22 21:47 25.76800 -80.57990 3493 ft 219 kts 55°
2026-04-22 21:47 25.77427 -80.56503 3147 ft 213 kts 82°
2026-04-22 21:47 25.77536 -80.54916 2982 ft 199 kts 85°
2026-04-22 21:48 25.77640 -80.53410 3012 ft 201 kts 85°
2026-04-22 21:48 25.77746 -80.51826 3000 ft 208 kts 86°
2026-04-22 21:48 25.77814 -80.50277 2983 ft 195 kts 86°
2026-04-22 21:48 25.77871 -80.48832 3002 ft 180 kts 86°
2026-04-22 21:49 25.77926 -80.47464 2823 ft 176 kts 86°
2026-04-22 21:49 25.77987 -80.46130 2649 ft 170 kts 86°
2026-04-22 21:49 25.78044 -80.44865 2406 ft 157 kts 86°
2026-04-22 21:49 25.78093 -80.43731 2231 ft 137 kts 86°
2026-04-22 21:50 25.78134 -80.42739 2021 ft 121 kts 86°
2026-04-22 21:50 25.78168 -80.41874 1856 ft 109 kts 86°
2026-04-22 21:50 25.78204 -80.41036 1740 ft 110 kts 86°
2026-04-22 21:50 25.78243 -80.40179 1611 ft 112 kts 86°
2026-04-22 21:51 25.78280 -80.39320 1460 ft 111 kts 86°
2026-04-22 21:51 25.78316 -80.38469 1311 ft 111 kts 86°
2026-04-22 21:51 25.78354 -80.37611 1167 ft 113 kts 86°
2026-04-22 21:52 25.78427 -80.35882 884 ft 111 kts 87°
2026-04-22 21:52 25.78464 -80.35033 737 ft 110 kts 86°
2026-04-22 21:52 25.78496 -80.34194 601 ft 111 kts 88°
2026-04-22 21:52 25.78533 -80.33326 472 ft 114 kts 86°
2026-04-22 21:53 25.78581 -80.32469 291 ft 113 kts 88°
2026-04-22 21:53 25.78596 -80.31613 167 ft 109 kts 88°
2026-04-22 21:53 25.78641 -80.30783 53 ft 109 kts 91°
2026-04-22 21:53 25.78673 -80.29937 33 ft 114 kts 86°
2026-04-22 21:54 25.78702 -80.29290 33 ft 57 kts 87°
2026-04-22 21:54 25.78723 -80.28918 33 ft 29 kts 83°
2026-04-22 21:54 25.78762 -80.28757 33 ft 15 kts 60°
2026-04-22 21:54 25.78822 -80.28677 33 ft 0 kts 44°
2026-04-22 21:55 25.78836 -80.28663 33 ft 5 kts 41°
2026-04-22 21:55 25.78860 -80.28641 33 ft 0 kts 39°
2026-04-22 21:55 25.78881 -80.28622 33 ft 12 kts 39°
2026-04-22 21:56 25.78966 -80.28550 33 ft 17 kts 36°
2026-04-22 21:56 25.79063 -80.28474 33 ft 17 kts 36°
2026-04-22 21:56 25.79163 -80.28412 33 ft 18 kts 21°
2026-04-22 21:56 25.79253 -80.28357 32 ft 10 kts 38°
2026-04-22 21:57 25.79289 -80.28311 32 ft 5 kts 77°
2026-04-22 21:57 25.79279 -80.28275 32 ft 3 kts 126°
2026-04-22 21:57 25.79260 -80.28256 32 ft 3 kts 138°
2026-04-22 21:57 25.79250 -80.28246 32 ft 2 kts 136°